Hub


Voltar

 INFORMAÇÕES METEOROLÓGICAS

METAR FOR PAGN


ADDS - METARS form results

(0839 UTC 25 March 2019)
Data provider http://aviationweather.gov/metar/data/
 
METAR text: PAGN 250756Z AUTO 00000KT 10SM CLR 01/01 A3032 RMK AO2 SLP258 T00110006 FZRANO
Conditions at: PAGN (ANGOON SEAPLANE , AK, US) observed 0756 UTC 25 March 2019
Temperature: 1.1°C (34°F)
Dewpoint: 0.6°C (33°F) [RH = 96%]
Pressure (altimeter): 30.32 inches Hg (1026.8 mb)
[Sea-level pressure: 1025.8 mb]
Winds: calm
Visibility: 10 or more miles (16+ km)
Ceiling: at least 12,000 feet AGL
Clouds: sky clear below 12,000 feet AGL
Weather: automated observation with no human augmentation;
there may or may not be significant weather present at this time


 MAPA DO AEROPORTO


 INFORMAÇÕES DA PISTA

Pista NW Tamanho da pista 10000 ft Largura da pista 900 ft
Elevação da pista 0 ft Ranhura da pista 0 ft Proa da pista 0
Pista SE Tamanho da pista 10000 ft Largura da pista 900 ft
Elevação da pista 0 ft Ranhura da pista 0 ft Proa da pista 0

 FREQUÊNCIAS DO AEROPORTO


 AUXÍLIOS DE NAVEGAÇÃO PRÓXIMOS AO AEROPORTO